St. Joseph, KS

7:33 AM CDT on September 18, 2019 (GMT -0500)
Rosecrans Memorial

Weather History for KSTJ - July, 2019

Change the Weather History Date:

Wednesday, July 10, 2019

  Actual Average Record
Temperature  
Mean Temperature 78 °F 77 °F  
Max Temperature 88 °F 87 °F 103 °F (1938)
Min Temperature 68 °F 67 °F 52 °F (1996)
Degree Days  
Heating Degree Days 0 0  
Month to date heating degree days 0 0  
Since 1 June heating degree days 1 8  
Since 1 July heating degree days 0 0  
Cooling Degree Days 13 12  
Month to date cooling degree days 155 118  
Year to date cooling degree days 549 498  
Since 1 June cooling degree days 448 385  
Growing Degree Days 29 (Base 50)    
Moisture  
Dew Point 68 °F    
Average Humidity 67    
Maximum Humidity 94    
Minimum Humidity 39    
Precipitation  
Precipitation 0.01 in 0.15 in 2.55 in (1958)
Month to date precipitation 0.22 1.46  
Year to date precipitation 21.49 18.59  
Sea Level Pressure  
Sea Level Pressure 30.01 in    
Wind  
Wind Speed 8 mph (NNW)    
Max Wind Speed 18 mph    
Max Gust Speed 24 mph    
Visibility 9 miles    
Events Thunderstorm    
T = Trace of Precipitation, MM = Missing Value Source: NWS Daily Summary

Daily Weather History Graph

Daily Weather History Graph

Search for Another Location

Airport or City:

Astronomy

Jul. 10, 2019 Rise Set
Actual Time 6:00 AM CDT 8:49 PM CDT
Civil Twilight 5:28 AM CDT 9:21 PM CDT
Nautical Twilight 4:48 AM CDT 10:01 PM CDT
Astronomical Twilight 4:01 AM CDT 10:47 PM CDT
Moon 2:57 PM CDT (7/10) 1:39 AM CDT (7/10)
Length of Visible Light 15h 52m
Length of Day
14h 48m
Waxing Gibbous, 64% of the Moon is Illuminated
Jul 10
Waxing Gibbous
Jul 16
Full
Jul 24
Last Quarter
Jul 31
New
Aug 7
First Quarter

Hourly Weather History & Observations

Time (CDT) Temp. Heat Index Dew Point Humidity Pressure Visibility Wind Dir Wind Speed Gust Speed Precip Events Conditions
12:53 AM 79.0 °F - 75.9 °F 90% 29.93 in 8.0 mi North 3.5 mph - N/A   Clear
1:53 AM 77.0 °F - 75.0 °F 94% 29.93 in 8.0 mi Calm Calm - N/A   Clear
2:53 AM 77.0 °F - 73.9 °F 90% 29.94 in 7.0 mi NNW 4.6 mph - N/A   Clear
3:53 AM 78.1 °F - 75.0 °F 90% 29.94 in 9.0 mi Calm Calm - N/A   Partly Cloudy
4:53 AM 77.0 °F - 75.0 °F 94% 29.95 in 8.0 mi Calm Calm - N/A   Partly Cloudy
5:53 AM 78.1 °F - 75.0 °F 90% 29.98 in 7.0 mi Calm Calm - N/A   Mostly Cloudy
6:53 AM 78.1 °F - 75.9 °F 93% 30.00 in 6.0 mi North 3.5 mph - N/A   Scattered Clouds
7:53 AM 82.0 °F 88.6 °F 75.0 °F 79% 30.03 in 10.0 mi North 5.8 mph - N/A   Clear
8:46 AM 79.0 °F - 73.9 °F 84% 30.10 in 10.0 mi NNW 6.9 mph - N/A Thunderstorm Thunderstorm
8:53 AM 79.0 °F - 73.0 °F 82% 30.09 in 9.0 mi NW 9.2 mph - N/A Thunderstorm Thunderstorm
9:01 AM 79.0 °F - 73.0 °F 82% 30.11 in 9.0 mi NW 3.5 mph - N/A   Partly Cloudy
10:53 AM 77.0 °F - 72.0 °F 84% 30.03 in 10.0 mi NW 11.5 mph - 0.01 in   Clear
11:53 AM 80.1 °F 83.2 °F 70.0 °F 71% 30.01 in 10.0 mi NNW 9.2 mph - N/A   Clear
12:53 PM 82.9 °F 84.0 °F 63.0 °F 51% 30.02 in 10.0 mi NNW 12.7 mph - N/A   Clear
1:53 PM 84.0 °F 84.5 °F 62.1 °F 47% 30.02 in 10.0 mi NNW 16.1 mph - N/A   Clear
2:53 PM 86.0 °F 86.3 °F 62.1 °F 44% 30.02 in 10.0 mi NW 12.7 mph - N/A   Clear
3:53 PM 86.0 °F 86.8 °F 63.0 °F 46% 30.01 in 10.0 mi WNW 15.0 mph - N/A   Clear
4:53 PM 87.1 °F 87.0 °F 61.0 °F 41% 30.00 in 10.0 mi NW 15.0 mph - N/A   Clear
5:53 PM 87.1 °F 86.5 °F 59.0 °F 39% 30.01 in 10.0 mi NW 11.5 mph - N/A   Clear
6:53 PM 86.0 °F 85.7 °F 60.1 °F 41% 30.01 in 10.0 mi NNW 11.5 mph - N/A   Clear
7:53 PM 82.9 °F 83.3 °F 61.0 °F 47% 30.01 in 10.0 mi NNW 9.2 mph - N/A   Clear
8:53 PM 75.9 °F - 64.0 °F 67% 30.03 in 10.0 mi NW 5.8 mph - N/A   Clear
9:53 PM 73.9 °F - 63.0 °F 68% 30.06 in 10.0 mi NNW 6.9 mph - N/A   Clear
10:53 PM 71.1 °F - 63.0 °F 75% 30.07 in 10.0 mi WNW 4.6 mph - N/A   Clear
11:53 PM 71.1 °F - 63.0 °F 75% 30.07 in 10.0 mi Calm Calm - 0.00 in   Clear